JST840 YSSY-YBPN

Flight info

Callsign JST840
Flight time 2h 29m
Altitude 36000
Route RIC H530 KABIX/N0456F370 Q141 DUPUG/N0458F380 DCT EML/N0394F200 W806 PN
Aircraft A320/M-SDE3FGHIRWY/LB1

Departure

Time 2026-04-30 03:49
Airport Sydney Kingsford Smith International Airport (YSSY)

Arrival

Time 2026-04-30 06:19
Airport Proserpine Whitsunday Coast Airport (YBPN)
Time Latitude Longitude Altitude Speed Heading
2026-04-30 03:32 -33.93514 151.17695 29 ft 0 kts 101°
2026-04-30 03:42 -33.93511 151.17672 51 ft 4 kts 98°
2026-04-30 03:42 -33.93508 151.17639 30 ft 4 kts 90°
2026-04-30 03:42 -33.93511 151.17608 30 ft 4 kts 60°
2026-04-30 03:42 -33.93523 151.17595 30 ft 1 kts 348°
2026-04-30 03:43 -33.93527 151.17596 30 ft 0 kts 348°
2026-04-30 03:45 -33.93519 151.17594 30 ft 2 kts 348°
2026-04-30 03:45 -33.93483 151.17586 30 ft 10 kts 352°
2026-04-30 03:45 -33.93383 151.17591 30 ft 17 kts 351°
2026-04-30 03:46 -33.93261 151.17562 30 ft 19 kts 348°
2026-04-30 03:46 -33.93137 151.17530 30 ft 12 kts 347°
2026-04-30 03:46 -33.93048 151.17539 30 ft 14 kts 18°
2026-04-30 03:46 -33.92984 151.17473 30 ft 15 kts 279°
2026-04-30 03:47 -33.92966 151.17355 30 ft 13 kts 282°
2026-04-30 03:47 -33.92958 151.17311 30 ft 0 kts 280°
2026-04-30 03:47 -33.92958 151.17305 30 ft 2 kts 280°
2026-04-30 03:48 -33.92955 151.17280 31 ft 6 kts 276°
2026-04-30 03:48 -33.92984 151.17201 30 ft 16 kts 216°
2026-04-30 03:48 -33.93112 151.17205 31 ft 25 kts 168°
2026-04-30 03:48 -33.93489 151.17305 27 ft 89 kts 167°
2026-04-30 03:49 -33.94287 151.17514 30 ft 142 kts 167°
2026-04-30 03:49 -33.95394 151.17794 118 ft 176 kts 167°
2026-04-30 03:49 -33.96632 151.17947 653 ft 182 kts 178°
2026-04-30 03:49 -33.97905 151.17901 1301 ft 184 kts 182°
2026-04-30 03:50 -33.99194 151.17803 1930 ft 187 kts 184°
2026-04-30 03:50 -34.00508 151.17699 2261 ft 197 kts 182°
2026-04-30 03:50 -34.01956 151.17596 2486 ft 221 kts 181°
2026-04-30 03:50 -34.03554 151.17813 2839 ft 243 kts 163°
2026-04-30 03:51 -34.05262 151.18364 3343 ft 263 kts 163°
2026-04-30 03:51 -34.07053 151.18957 4143 ft 269 kts 163°
2026-04-30 03:51 -34.08867 151.19563 5036 ft 272 kts 163°
2026-04-30 03:51 -34.10701 151.20174 5941 ft 275 kts 163°
2026-04-30 03:52 -34.12556 151.20793 6818 ft 278 kts 163°
2026-04-30 03:52 -34.14433 151.21420 7646 ft 281 kts 163°
2026-04-30 03:52 -34.16325 151.22048 8465 ft 284 kts 165°
2026-04-30 03:52 -34.18273 151.22314 9261 ft 289 kts 182°
2026-04-30 03:53 -34.20245 151.21819 10080 ft 293 kts 201°
2026-04-30 03:53 -34.22027 151.20549 10800 ft 298 kts 220°
2026-04-30 03:53 -34.23492 151.18659 11128 ft 317 kts 233°
2026-04-30 03:53 -34.24624 151.16396 11695 ft 323 kts 246°
2026-04-30 03:54 -34.25293 151.13789 12365 ft 326 kts 262°
2026-04-30 03:54 -34.25406 151.11052 13047 ft 328 kts 276°
2026-04-30 03:54 -34.24950 151.08351 13737 ft 330 kts 291°
2026-04-30 03:54 -34.23935 151.05870 14407 ft 331 kts 305°
2026-04-30 03:55 -34.22429 151.03769 15005 ft 333 kts 320°
2026-04-30 03:55 -34.20512 151.02190 15561 ft 336 kts 334°
2026-04-30 03:55 -34.18298 151.01250 16120 ft 340 kts 349°
2026-04-30 03:55 -34.15928 151.01034 16676 ft 344 kts
2026-04-30 03:56 -34.13548 151.01466 17229 ft 349 kts
2026-04-30 03:56 -34.11106 151.01567 17772 ft 353 kts 355°
2026-04-30 03:56 -34.08677 151.01007 18327 ft 358 kts 344°
2026-04-30 03:56 -34.06268 151.00183 18860 ft 362 kts 344°
2026-04-30 03:57 -34.03827 150.99358 19367 ft 366 kts 344°
2026-04-30 03:57 -34.01364 150.98535 19895 ft 369 kts 345°
2026-04-30 03:57 -33.98883 150.97691 20426 ft 372 kts 341°
2026-04-30 03:57 -33.96445 150.96533 20683 ft 384 kts 337°
2026-04-30 03:58 -33.93933 150.95252 20811 ft 399 kts 336°
2026-04-30 03:58 -33.91337 150.93907 21020 ft 411 kts 336°
2026-04-30 03:58 -33.88691 150.92527 21449 ft 416 kts 336°
2026-04-30 03:58 -33.86030 150.91143 21976 ft 418 kts 336°
2026-04-30 03:59 -33.83348 150.89757 22479 ft 421 kts 336°
2026-04-30 03:59 -33.80644 150.88371 22945 ft 424 kts 336°
2026-04-30 03:59 -33.77922 150.86975 23400 ft 427 kts 336°
2026-04-30 03:59 -33.75187 150.85572 23842 ft 430 kts 336°
2026-04-30 04:00 -33.72425 150.84155 24226 ft 433 kts 336°
2026-04-30 04:00 -33.69650 150.82730 24591 ft 435 kts 336°
2026-04-30 04:00 -33.66856 150.81299 24951 ft 438 kts 336°
2026-04-30 04:00 -33.64047 150.79863 25306 ft 440 kts 336°
2026-04-30 04:01 -33.61260 150.78320 25661 ft 442 kts 330°
2026-04-30 04:01 -33.58686 150.76299 26002 ft 444 kts 321°
2026-04-30 04:01 -33.56391 150.73820 26344 ft 445 kts 315°
2026-04-30 04:01 -33.54168 150.71225 26698 ft 447 kts 315°
2026-04-30 04:02 -33.52687 150.69502 26936 ft 448 kts 315°
2026-04-30 04:02 -33.49708 150.66047 27396 ft 451 kts 315°
2026-04-30 04:02 -33.48182 150.64284 27641 ft 452 kts 315°
2026-04-30 04:02 -33.45170 150.60813 28094 ft 455 kts 315°
2026-04-30 04:03 -33.42887 150.58181 28446 ft 457 kts 315°
2026-04-30 04:03 -33.40590 150.55534 28775 ft 459 kts 315°
2026-04-30 04:03 -33.38287 150.52877 29123 ft 460 kts 315°
2026-04-30 04:03 -33.35991 150.50226 29609 ft 459 kts 315°
2026-04-30 04:04 -33.34437 150.48433 29954 ft 458 kts 315°
2026-04-30 04:04 -33.32154 150.45801 30439 ft 456 kts 314°
2026-04-30 04:04 -33.29871 150.43168 30859 ft 455 kts 315°
2026-04-30 04:04 -33.27593 150.40545 31264 ft 454 kts 315°
2026-04-30 04:05 -33.25319 150.37931 31639 ft 454 kts 315°
2026-04-30 04:05 -33.23079 150.35360 32024 ft 453 kts 315°
2026-04-30 04:05 -33.20799 150.32750 32414 ft 453 kts 315°
2026-04-30 04:05 -33.18528 150.30154 32816 ft 452 kts 315°
2026-04-30 04:06 -33.16257 150.27556 33215 ft 451 kts 315°
2026-04-30 04:06 -33.13990 150.24964 33605 ft 451 kts 315°
2026-04-30 04:06 -33.11725 150.22376 34011 ft 451 kts 315°
2026-04-30 04:06 -33.09463 150.19793 34416 ft 450 kts 315°
2026-04-30 04:07 -33.07205 150.17218 34767 ft 448 kts 314°
2026-04-30 04:07 -33.04958 150.14658 35157 ft 446 kts 314°
2026-04-30 04:07 -33.02724 150.12113 35559 ft 443 kts 315°
2026-04-30 04:08 -32.98297 150.07068 36278 ft 439 kts 314°
2026-04-30 04:08 -32.96095 150.04561 36383 ft 439 kts 314°
2026-04-30 04:08 -32.93874 150.02036 36401 ft 443 kts 314°
2026-04-30 04:09 -32.89429 149.96982 36392 ft 446 kts 314°
2026-04-30 04:09 -32.84939 149.91896 36395 ft 446 kts 314°
2026-04-30 04:10 -32.80449 149.86815 36386 ft 446 kts 314°
2026-04-30 04:10 -32.75960 149.81737 36385 ft 445 kts 314°
2026-04-30 04:11 -32.71470 149.76668 36383 ft 445 kts 315°
2026-04-30 04:11 -32.66978 149.71602 36383 ft 445 kts 314°
2026-04-30 04:12 -32.62479 149.66543 36380 ft 445 kts 315°
2026-04-30 04:12 -32.57977 149.61501 36379 ft 445 kts 315°
2026-04-30 04:13 -32.53824 149.56104 36378 ft 443 kts 307°
2026-04-30 04:13 -32.49937 149.50442 36373 ft 443 kts 307°
2026-04-30 04:14 -32.46040 149.44786 36373 ft 443 kts 307°
2026-04-30 04:14 -32.42143 149.39148 36370 ft 443 kts 307°
2026-04-30 04:15 -32.38257 149.33544 36366 ft 442 kts 307°
2026-04-30 04:15 -32.34348 149.27922 36367 ft 442 kts 308°
2026-04-30 04:16 -32.30443 149.22306 36366 ft 442 kts 308°
2026-04-30 04:16 -32.26536 149.16693 36363 ft 442 kts 308°
2026-04-30 04:17 -32.22626 149.11096 36362 ft 442 kts 308°
2026-04-30 04:17 -32.18714 149.05498 36359 ft 442 kts 307°
2026-04-30 04:18 -32.14808 148.99901 36358 ft 442 kts 307°
2026-04-30 04:18 -32.10896 148.94309 36355 ft 442 kts 307°
2026-04-30 04:19 -32.06928 148.88782 36354 ft 443 kts 313°
2026-04-30 04:19 -32.02016 148.84380 36352 ft 445 kts 324°
2026-04-30 04:20 -31.96824 148.80388 36347 ft 446 kts 324°
2026-04-30 04:20 -31.91635 148.76390 36336 ft 446 kts 324°
2026-04-30 04:21 -31.86443 148.72391 36335 ft 446 kts 324°
2026-04-30 04:21 -31.81245 148.68392 36332 ft 447 kts 324°
2026-04-30 04:22 -31.76040 148.64401 36332 ft 447 kts 324°
2026-04-30 04:22 -31.70833 148.60422 36332 ft 447 kts 324°
2026-04-30 04:23 -31.65623 148.56439 36328 ft 447 kts 324°
2026-04-30 04:23 -31.60450 148.52490 36323 ft 447 kts 324°
2026-04-30 04:24 -31.55242 148.48511 36320 ft 447 kts 324°
2026-04-30 04:24 -31.50027 148.44533 36321 ft 447 kts 324°
2026-04-30 04:25 -31.44801 148.40562 36319 ft 448 kts 324°
2026-04-30 04:25 -31.39574 148.36596 36318 ft 448 kts 324°
2026-04-30 04:26 -31.34348 148.32627 36321 ft 448 kts 324°
2026-04-30 04:26 -31.29113 148.28661 36318 ft 448 kts 324°
2026-04-30 04:27 -31.23875 148.24703 36323 ft 448 kts 324°
2026-04-30 04:27 -31.18640 148.20742 36323 ft 448 kts 324°
2026-04-30 04:28 -31.13406 148.16787 36321 ft 448 kts 324°
2026-04-30 04:28 -31.08166 148.12848 36315 ft 448 kts 324°
2026-04-30 04:29 -31.02922 148.08907 36315 ft 448 kts 324°
2026-04-30 04:29 -30.97688 148.04967 36320 ft 448 kts 324°
2026-04-30 04:30 -30.92447 148.01039 36320 ft 448 kts 324°
2026-04-30 04:30 -30.87246 147.97146 36316 ft 448 kts 324°
2026-04-30 04:31 -30.82004 147.93225 36326 ft 448 kts 324°
2026-04-30 04:31 -30.76771 147.89309 36318 ft 447 kts 324°
2026-04-30 04:32 -30.71540 147.85391 36315 ft 447 kts 324°
2026-04-30 04:32 -30.66304 147.81489 36318 ft 447 kts 324°
2026-04-30 04:33 -30.61070 147.77605 36317 ft 446 kts 324°
2026-04-30 04:33 -30.55844 147.73724 36315 ft 446 kts 324°
2026-04-30 04:34 -30.50618 147.69843 36310 ft 446 kts 324°
2026-04-30 04:34 -30.45401 147.65969 36303 ft 445 kts 324°
2026-04-30 04:35 -30.40184 147.62103 36306 ft 445 kts 324°
2026-04-30 04:35 -30.34955 147.58241 36300 ft 445 kts 324°
2026-04-30 04:36 -30.29206 147.55473 36297 ft 454 kts 345°
2026-04-30 04:36 -30.22905 147.55220 36293 ft 463 kts
2026-04-30 04:37 -30.16554 147.56632 36283 ft 465 kts
2026-04-30 04:37 -30.10197 147.58062 36293 ft 466 kts
2026-04-30 04:38 -30.03832 147.59493 36284 ft 466 kts
2026-04-30 04:38 -29.97459 147.60942 36290 ft 467 kts
2026-04-30 04:39 -29.91081 147.62375 36295 ft 467 kts
2026-04-30 04:39 -29.84693 147.63811 36296 ft 468 kts
2026-04-30 04:40 -29.78300 147.65246 36294 ft 468 kts
2026-04-30 04:40 -29.71907 147.66683 36297 ft 468 kts
2026-04-30 04:41 -29.65516 147.68117 36327 ft 468 kts
2026-04-30 04:41 -29.62325 147.68834 36633 ft 467 kts
2026-04-30 04:41 -29.59132 147.69547 36919 ft 467 kts
2026-04-30 04:41 -29.55941 147.70258 37171 ft 467 kts
2026-04-30 04:42 -29.52750 147.70968 37276 ft 468 kts
2026-04-30 04:42 -29.46351 147.72385 37276 ft 468 kts
2026-04-30 04:43 -29.39957 147.73806 37275 ft 466 kts
2026-04-30 04:43 -29.33641 147.75227 37273 ft 460 kts
2026-04-30 04:44 -29.27413 147.76609 37273 ft 459 kts
2026-04-30 04:44 -29.21100 147.78004 37284 ft 459 kts
2026-04-30 04:45 -29.14825 147.79398 37283 ft 459 kts
2026-04-30 04:45 -29.08592 147.80769 37277 ft 459 kts
2026-04-30 04:46 -29.02302 147.82102 37283 ft 459 kts
2026-04-30 04:46 -28.96023 147.83424 37277 ft 459 kts
2026-04-30 04:47 -28.89744 147.84751 37274 ft 459 kts
2026-04-30 04:47 -28.83455 147.86087 37276 ft 459 kts
2026-04-30 04:48 -28.77179 147.87419 37274 ft 459 kts
2026-04-30 04:48 -28.70902 147.88752 37271 ft 459 kts
2026-04-30 04:49 -28.64621 147.90081 37278 ft 459 kts
2026-04-30 04:49 -28.59402 147.91177 37271 ft 459 kts
2026-04-30 04:50 -28.52102 147.92725 37272 ft 459 kts
2026-04-30 04:50 -28.45816 147.94053 37274 ft 459 kts
2026-04-30 04:51 -28.40594 147.95150 37272 ft 459 kts
2026-04-30 04:51 -28.34315 147.96464 37273 ft 459 kts
2026-04-30 04:52 -28.28033 147.97783 37269 ft 459 kts
2026-04-30 04:52 -28.21750 147.99109 37267 ft 459 kts
2026-04-30 04:53 -28.15463 148.00423 37268 ft 459 kts
2026-04-30 04:53 -28.09179 148.01736 37268 ft 459 kts
2026-04-30 04:54 -28.02904 148.03047 37262 ft 459 kts
2026-04-30 04:54 -27.96616 148.04365 37259 ft 459 kts
2026-04-30 04:55 -27.90350 148.05671 37257 ft 459 kts
2026-04-30 04:55 -27.84051 148.06975 37255 ft 459 kts
2026-04-30 04:56 -27.77771 148.08284 37253 ft 459 kts
2026-04-30 04:56 -27.71483 148.09599 37251 ft 460 kts
2026-04-30 04:57 -27.65189 148.10907 37248 ft 459 kts
2026-04-30 04:57 -27.58945 148.12202 37249 ft 459 kts
2026-04-30 04:58 -27.52656 148.13501 37248 ft 459 kts
2026-04-30 04:58 -27.46370 148.14796 37245 ft 459 kts
2026-04-30 04:59 -27.40078 148.16091 37245 ft 460 kts
2026-04-30 04:59 -27.33781 148.17382 37249 ft 460 kts
2026-04-30 05:00 -27.27492 148.18748 37246 ft 460 kts
2026-04-30 05:00 -27.21215 148.20199 37240 ft 461 kts
2026-04-30 05:01 -27.14933 148.21635 37244 ft 461 kts
2026-04-30 05:01 -27.08645 148.23040 37240 ft 460 kts
2026-04-30 05:02 -27.02359 148.24444 37243 ft 460 kts
2026-04-30 05:02 -26.96079 148.25845 37240 ft 460 kts
2026-04-30 05:03 -26.89803 148.27241 37233 ft 460 kts
2026-04-30 05:03 -26.83524 148.28631 37227 ft 460 kts
2026-04-30 05:04 -26.77244 148.30034 37225 ft 460 kts
2026-04-30 05:04 -26.70960 148.31435 37232 ft 460 kts
2026-04-30 05:05 -26.64672 148.32838 37229 ft 461 kts
2026-04-30 05:05 -26.58426 148.34231 37226 ft 461 kts
2026-04-30 05:06 -26.48977 148.36313 37233 ft 462 kts
2026-04-30 05:06 -26.42670 148.37705 37234 ft 462 kts
2026-04-30 05:07 -26.36351 148.39102 37234 ft 463 kts
2026-04-30 05:07 -26.30035 148.40494 37234 ft 463 kts
2026-04-30 05:08 -26.23727 148.41886 37236 ft 463 kts
2026-04-30 05:08 -26.17401 148.43286 37234 ft 463 kts
2026-04-30 05:09 -26.11083 148.44679 37231 ft 463 kts
2026-04-30 05:09 -26.04766 148.46025 37228 ft 460 kts
2026-04-30 05:10 -25.98458 148.45974 37224 ft 450 kts 349°
2026-04-30 05:10 -25.92231 148.45200 37220 ft 451 kts 349°
2026-04-30 05:11 -25.85995 148.44432 37224 ft 451 kts 349°
2026-04-30 05:11 -25.79792 148.43679 37222 ft 451 kts 349°
2026-04-30 05:12 -25.73545 148.42930 37223 ft 451 kts 349°
2026-04-30 05:12 -25.67306 148.42174 37226 ft 451 kts 349°
2026-04-30 05:13 -25.61059 148.41412 37217 ft 451 kts 349°
2026-04-30 05:13 -25.54815 148.40654 37227 ft 451 kts 349°
2026-04-30 05:14 -25.48570 148.39905 37218 ft 451 kts 349°
2026-04-30 05:14 -25.42330 148.39155 37217 ft 451 kts 348°
2026-04-30 05:15 -25.36091 148.38401 37213 ft 451 kts 348°
2026-04-30 05:15 -25.29842 148.37652 37214 ft 452 kts 348°
2026-04-30 05:16 -25.23600 148.36896 37211 ft 451 kts 348°
2026-04-30 05:16 -25.17357 148.36147 37212 ft 451 kts 348°
2026-04-30 05:17 -25.11115 148.35398 37205 ft 451 kts 348°
2026-04-30 05:17 -25.04879 148.34647 37203 ft 451 kts 348°
2026-04-30 05:18 -24.98644 148.33897 37204 ft 451 kts 349°
2026-04-30 05:18 -24.92407 148.33157 37202 ft 451 kts 348°
2026-04-30 05:19 -24.86177 148.32407 37323 ft 450 kts 348°
2026-04-30 05:19 -24.83070 148.32033 37638 ft 449 kts 348°
2026-04-30 05:19 -24.80002 148.31668 37930 ft 448 kts 348°
2026-04-30 05:20 -24.76902 148.31298 38147 ft 449 kts 348°
2026-04-30 05:20 -24.73799 148.30929 38186 ft 449 kts 348°
2026-04-30 05:20 -24.67594 148.30196 38185 ft 448 kts 348°
2026-04-30 05:21 -24.61392 148.29460 38182 ft 448 kts 348°
2026-04-30 05:21 -24.55195 148.28726 38179 ft 448 kts 348°
2026-04-30 05:22 -24.48999 148.27989 38180 ft 448 kts 348°
2026-04-30 05:22 -24.42806 148.27247 38176 ft 448 kts 348°
2026-04-30 05:23 -24.36610 148.26506 38174 ft 448 kts 348°
2026-04-30 05:23 -24.30413 148.25774 38172 ft 448 kts 348°
2026-04-30 05:24 -24.24207 148.25056 38172 ft 448 kts 348°
2026-04-30 05:24 -24.18009 148.24319 38171 ft 448 kts 348°
2026-04-30 05:25 -24.11805 148.23576 38171 ft 448 kts 348°
2026-04-30 05:25 -24.05601 148.22840 38174 ft 449 kts 348°
2026-04-30 05:26 -23.99392 148.22108 38168 ft 449 kts 348°
2026-04-30 05:26 -23.93183 148.21380 38163 ft 449 kts 348°
2026-04-30 05:27 -23.86973 148.20657 38160 ft 449 kts 348°
2026-04-30 05:27 -23.80763 148.19931 38164 ft 448 kts 348°
2026-04-30 05:28 -23.74563 148.19199 38162 ft 448 kts 347°
2026-04-30 05:28 -23.68359 148.18466 38162 ft 448 kts 347°
2026-04-30 05:29 -23.62154 148.17739 38162 ft 448 kts 347°
2026-04-30 05:29 -23.55915 148.17255 38155 ft 455 kts 357°
2026-04-30 05:30 -23.49574 148.18004 38156 ft 459 kts
2026-04-30 05:30 -23.43274 148.18815 38152 ft 459 kts
2026-04-30 05:31 -23.36938 148.19614 38153 ft 459 kts
2026-04-30 05:31 -23.30599 148.20415 38145 ft 459 kts
2026-04-30 05:32 -23.24256 148.21229 38151 ft 459 kts
2026-04-30 05:32 -23.17908 148.22038 38153 ft 459 kts 360°
2026-04-30 05:33 -23.11567 148.22831 38146 ft 459 kts 360°
2026-04-30 05:33 -23.05224 148.23633 38145 ft 459 kts 360°
2026-04-30 05:34 -22.98877 148.24433 38151 ft 459 kts 360°
2026-04-30 05:34 -22.92527 148.25230 38150 ft 460 kts 360°
2026-04-30 05:35 -22.86174 148.26032 38153 ft 459 kts 359°
2026-04-30 05:35 -22.79862 148.26824 38152 ft 459 kts 359°
2026-04-30 05:36 -22.73514 148.27624 38149 ft 459 kts 359°
2026-04-30 05:36 -22.67160 148.28420 38146 ft 459 kts 359°
2026-04-30 05:37 -22.60811 148.29211 38143 ft 459 kts 359°
2026-04-30 05:37 -22.54470 148.30007 38141 ft 459 kts 359°
2026-04-30 05:38 -22.49197 148.30665 38138 ft 459 kts 359°
2026-04-30 05:38 -22.42860 148.31462 38139 ft 459 kts 359°
2026-04-30 05:39 -22.35454 148.32391 38138 ft 458 kts 359°
2026-04-30 05:39 -22.30184 148.33048 38135 ft 458 kts 359°
2026-04-30 05:40 -22.23851 148.33829 38144 ft 458 kts 359°
2026-04-30 05:40 -22.17518 148.34610 38143 ft 458 kts 359°
2026-04-30 05:41 -22.11191 148.35398 38142 ft 458 kts 359°
2026-04-30 05:41 -22.04865 148.36190 38141 ft 458 kts 359°
2026-04-30 05:42 -21.98545 148.36975 38141 ft 457 kts 358°
2026-04-30 05:42 -21.92282 148.37753 37051 ft 457 kts 359°
2026-04-30 05:43 -21.89101 148.38146 36097 ft 461 kts 359°
2026-04-30 05:43 -21.85942 148.38542 35641 ft 456 kts 359°
2026-04-30 05:43 -21.82768 148.38936 34806 ft 462 kts 359°
2026-04-30 05:43 -21.79562 148.39330 33893 ft 467 kts 360°
2026-04-30 05:44 -21.76317 148.39730 32905 ft 471 kts
2026-04-30 05:44 -21.73052 148.40133 31911 ft 474 kts
2026-04-30 05:44 -21.69768 148.40538 30980 ft 476 kts
2026-04-30 05:44 -21.66467 148.40945 29845 ft 480 kts
2026-04-30 05:45 -21.63152 148.41354 29058 ft 476 kts
2026-04-30 05:45 -21.59891 148.41765 28513 ft 467 kts
2026-04-30 05:45 -21.56685 148.42168 27832 ft 462 kts
2026-04-30 05:45 -21.53500 148.42566 27162 ft 458 kts
2026-04-30 05:46 -21.50357 148.42956 26508 ft 453 kts
2026-04-30 05:46 -21.47231 148.43340 25857 ft 450 kts
2026-04-30 05:46 -21.44136 148.43719 25213 ft 446 kts
2026-04-30 05:46 -21.41061 148.44097 24572 ft 443 kts
2026-04-30 05:47 -21.38005 148.44472 23937 ft 441 kts
2026-04-30 05:47 -21.34965 148.44844 23255 ft 438 kts
2026-04-30 05:47 -21.31962 148.45213 22654 ft 432 kts
2026-04-30 05:47 -21.28987 148.45579 22074 ft 427 kts
2026-04-30 05:48 -21.26047 148.45941 21506 ft 423 kts
2026-04-30 05:48 -21.23132 148.46299 20962 ft 420 kts
2026-04-30 05:48 -21.20232 148.46650 20414 ft 418 kts
2026-04-30 05:48 -21.17349 148.46998 19875 ft 416 kts
2026-04-30 05:49 -21.14479 148.47346 19329 ft 415 kts
2026-04-30 05:49 -21.11650 148.47693 18788 ft 414 kts
2026-04-30 05:49 -21.08786 148.48047 18180 ft 414 kts
2026-04-30 05:49 -21.05932 148.48401 17580 ft 412 kts
2026-04-30 05:50 -21.03096 148.48755 16991 ft 409 kts
2026-04-30 05:50 -21.00278 148.49103 16393 ft 407 kts
2026-04-30 05:50 -20.97472 148.49446 15789 ft 405 kts
2026-04-30 05:50 -20.94681 148.49786 15174 ft 403 kts
2026-04-30 05:51 -20.91897 148.50125 14570 ft 401 kts
2026-04-30 05:51 -20.89139 148.50464 13974 ft 399 kts
2026-04-30 05:51 -20.86400 148.50801 13351 ft 394 kts
2026-04-30 05:51 -20.83684 148.51133 12699 ft 390 kts
2026-04-30 05:52 -20.81096 148.51444 12084 ft 388 kts
2026-04-30 05:52 -20.78427 148.51761 11479 ft 384 kts
2026-04-30 05:52 -20.75774 148.52080 10914 ft 382 kts
2026-04-30 05:52 -20.73173 148.52398 10701 ft 368 kts
2026-04-30 05:53 -20.70680 148.52708 10582 ft 353 kts
2026-04-30 05:53 -20.68277 148.53004 10457 ft 341 kts
2026-04-30 05:53 -20.65967 148.53288 10347 ft 329 kts
2026-04-30 05:53 -20.63729 148.53564 10200 ft 319 kts
2026-04-30 05:54 -20.61532 148.53836 9899 ft 316 kts
2026-04-30 05:54 -20.59360 148.54102 9246 ft 313 kts
2026-04-30 05:54 -20.57206 148.54364 8609 ft 310 kts
2026-04-30 05:54 -20.55055 148.54622 7949 ft 308 kts
2026-04-30 05:55 -20.52983 148.54868 7738 ft 290 kts
2026-04-30 05:55 -20.51045 148.54972 7607 ft 272 kts 356°
2026-04-30 05:55 -20.49279 148.54535 7479 ft 257 kts 339°
2026-04-30 05:55 -20.47738 148.53611 7100 ft 253 kts 322°
2026-04-30 05:56 -20.46388 148.52432 6752 ft 248 kts 322°
2026-04-30 05:56 -20.45065 148.51284 6419 ft 243 kts 323°
2026-04-30 05:56 -20.43771 148.50167 6080 ft 236 kts 323°
2026-04-30 05:56 -20.42518 148.49088 5813 ft 227 kts 323°
2026-04-30 05:57 -20.41309 148.48047 5473 ft 220 kts 324°
2026-04-30 05:57 -20.40134 148.47035 5181 ft 214 kts 324°
2026-04-30 05:57 -20.38987 148.46046 4901 ft 210 kts 324°
2026-04-30 05:57 -20.37853 148.45069 4604 ft 209 kts 324°
2026-04-30 05:58 -20.36740 148.44106 4332 ft 203 kts 322°
2026-04-30 05:58 -20.35912 148.42957 4181 ft 192 kts 291°
2026-04-30 05:58 -20.35685 148.41617 4032 ft 178 kts 259°
2026-04-30 05:58 -20.36000 148.40404 3909 ft 164 kts 232°
2026-04-30 05:59 -20.36691 148.39499 3791 ft 153 kts 208°
2026-04-30 05:59 -20.37570 148.38977 3674 ft 137 kts 186°
2026-04-30 05:59 -20.38487 148.38817 3551 ft 134 kts 168°
2026-04-30 05:59 -20.39396 148.38994 3444 ft 131 kts 152°
2026-04-30 06:00 -20.40184 148.39461 3369 ft 133 kts 137°
2026-04-30 06:00 -20.40806 148.40193 3281 ft 135 kts 121°
2026-04-30 06:00 -20.41301 148.41050 3118 ft 136 kts 122°
2026-04-30 06:00 -20.41803 148.41904 2934 ft 135 kts 122°
2026-04-30 06:01 -20.42302 148.42751 2755 ft 135 kts 122°
2026-04-30 06:01 -20.42800 148.43597 2580 ft 134 kts 122°
2026-04-30 06:01 -20.43296 148.44443 2397 ft 134 kts 122°
2026-04-30 06:01 -20.43791 148.45284 2211 ft 133 kts 122°
2026-04-30 06:02 -20.44287 148.46122 2043 ft 133 kts 122°
2026-04-30 06:02 -20.44784 148.46960 1857 ft 134 kts 122°
2026-04-30 06:02 -20.45278 148.47795 1698 ft 133 kts 122°
2026-04-30 06:02 -20.45772 148.48633 1513 ft 134 kts 122°
2026-04-30 06:03 -20.46265 148.49473 1336 ft 134 kts 122°
2026-04-30 06:03 -20.46797 148.50280 1201 ft 134 kts 126°
2026-04-30 06:03 -20.47347 148.51086 992 ft 134 kts 124°
2026-04-30 06:03 -20.47846 148.51940 754 ft 136 kts 122°
2026-04-30 06:04 -20.48302 148.52817 557 ft 135 kts 119°
2026-04-30 06:04 -20.48726 148.53713 321 ft 136 kts 118°
2026-04-30 06:04 -20.49120 148.54620 95 ft 133 kts 119°
2026-04-30 06:05 -20.49965 148.56449 756 ft 162 kts 117°
2026-04-30 06:05 -20.50439 148.57553 1508 ft 164 kts 116°
2026-04-30 06:05 -20.50933 148.58655 2112 ft 172 kts 120°
2026-04-30 06:05 -20.51564 148.59810 2567 ft 185 kts 122°
2026-04-30 06:06 -20.52240 148.60993 3133 ft 189 kts 122°
2026-04-30 06:06 -20.52928 148.62186 3247 ft 188 kts 122°
2026-04-30 06:06 -20.53612 148.63371 3266 ft 187 kts 123°
2026-04-30 06:06 -20.54540 148.64318 3272 ft 190 kts 153°
2026-04-30 06:07 -20.55869 148.64438 3273 ft 203 kts 188°
2026-04-30 06:07 -20.57129 148.63673 3273 ft 218 kts 217°
2026-04-30 06:07 -20.57892 148.62227 3275 ft 234 kts 253°
2026-04-30 06:07 -20.57803 148.60477 3285 ft 241 kts 279°
2026-04-30 06:08 -20.57429 148.58734 3277 ft 240 kts 280°
2026-04-30 06:08 -20.57047 148.56999 3276 ft 241 kts 280°
2026-04-30 06:08 -20.56665 148.55253 3274 ft 243 kts 280°
2026-04-30 06:08 -20.56284 148.53497 3315 ft 242 kts 280°
2026-04-30 06:09 -20.55905 148.51740 3500 ft 244 kts 281°
2026-04-30 06:09 -20.55526 148.49985 3744 ft 242 kts 281°
2026-04-30 06:09 -20.55147 148.48229 3989 ft 243 kts 281°
2026-04-30 06:09 -20.54771 148.46488 4128 ft 244 kts 281°
2026-04-30 06:10 -20.54390 148.44720 4170 ft 244 kts 281°
2026-04-30 06:10 -20.54012 148.42964 4173 ft 242 kts 282°
2026-04-30 06:10 -20.53635 148.41214 4179 ft 242 kts 282°
2026-04-30 06:10 -20.53261 148.39473 4089 ft 243 kts 282°
2026-04-30 06:11 -20.52879 148.37694 3777 ft 243 kts 281°
2026-04-30 06:11 -20.52465 148.35955 3762 ft 243 kts 292°
2026-04-30 06:11 -20.51607 148.34665 3767 ft 239 kts 326°
2026-04-30 06:11 -20.50139 148.33980 3774 ft 228 kts
2026-04-30 06:12 -20.48577 148.33985 3775 ft 224 kts 11°
2026-04-30 06:12 -20.47029 148.34149 3775 ft 223 kts 15°
2026-04-30 06:12 -20.45500 148.34431 3776 ft 222 kts 19°
2026-04-30 06:12 -20.44010 148.34824 3772 ft 216 kts 23°
2026-04-30 06:13 -20.42630 148.35309 3768 ft 204 kts 28°
2026-04-30 06:13 -20.41335 148.35883 3765 ft 199 kts 33°
2026-04-30 06:13 -20.40262 148.36718 3770 ft 178 kts 64°
2026-04-30 06:13 -20.39870 148.37814 3805 ft 151 kts 91°
2026-04-30 06:14 -20.40025 148.38873 3776 ft 145 kts 115°
2026-04-30 06:14 -20.40542 148.39788 3775 ft 145 kts 122°
2026-04-30 06:14 -20.41081 148.40690 3733 ft 143 kts 122°
2026-04-30 06:14 -20.41609 148.41583 3526 ft 143 kts 122°
2026-04-30 06:15 -20.42141 148.42482 3282 ft 145 kts 122°
2026-04-30 06:15 -20.42687 148.43408 2906 ft 152 kts 122°
2026-04-30 06:15 -20.43263 148.44383 2519 ft 159 kts 122°
2026-04-30 06:15 -20.43865 148.45398 2182 ft 162 kts 122°
2026-04-30 06:16 -20.44442 148.46375 1971 ft 146 kts 122°
2026-04-30 06:16 -20.44962 148.47257 1794 ft 137 kts 122°
2026-04-30 06:16 -20.45464 148.48105 1606 ft 134 kts 122°
2026-04-30 06:16 -20.46007 148.48909 1485 ft 134 kts 126°
2026-04-30 06:17 -20.46581 148.49684 1308 ft 133 kts 125°
2026-04-30 06:17 -20.47104 148.50491 1102 ft 133 kts 122°
2026-04-30 06:17 -20.47590 148.51339 886 ft 136 kts 121°
2026-04-30 06:17 -20.48051 148.52213 659 ft 134 kts 119°
2026-04-30 06:18 -20.48461 148.53107 452 ft 134 kts 118°
2026-04-30 06:18 -20.48857 148.54004 243 ft 133 kts 117°
2026-04-30 06:18 -20.49232 148.54877 61 ft 122 kts 118°
2026-04-30 06:18 -20.49488 148.55456 56 ft 57 kts 115°
2026-04-30 06:19 -20.49639 148.55809 46 ft 48 kts 114°
2026-04-30 06:19 -20.49751 148.56072 50 ft 31 kts 112°
2026-04-30 06:19 -20.49789 148.56220 50 ft 11 kts 96°
2026-04-30 06:19 -20.49817 148.56204 49 ft 9 kts 311°
2026-04-30 06:20 -20.49775 148.56133 50 ft 15 kts 295°
2026-04-30 06:20 -20.49718 148.56004 46 ft 24 kts 296°
2026-04-30 06:20 -20.49643 148.55831 47 ft 26 kts 295°
2026-04-30 06:20 -20.49564 148.55647 49 ft 28 kts 294°
2026-04-30 06:21 -20.49484 148.55460 52 ft 28 kts 294°
2026-04-30 06:21 -20.49404 148.55270 56 ft 28 kts 294°
2026-04-30 06:21 -20.49340 148.55122 55 ft 16 kts 295°
2026-04-30 06:21 -20.49284 148.55071 57 ft 12 kts 11°
2026-04-30 06:22 -20.49193 148.55114 55 ft 16 kts 25°
2026-04-30 06:22 -20.49108 148.55155 54 ft 11 kts 24°
2026-04-30 06:22 -20.49053 148.55162 56 ft 9 kts 339°
2026-04-30 06:22 -20.49011 148.55139 53 ft 4 kts
2026-04-30 06:23 -20.48998 148.55156 55 ft 2 kts 72°
2026-04-30 06:23 -20.48994 148.55176 57 ft 0 kts 78°